Location: ?????
(42.2640°N, 43.4211°E)
Time: 15:21:03
(UTC+00:00)

NOSS 2-3 (E) - Pass Details

Date: 07 August 2020
Orbit: 572 x 1639 km, 63.4° (Epoch: 17 September)

Event Time Altitude Azimuth Distance (km) Brightness Sun altitude
Exits shadow 00:23:10 29° 198° (SSW) 1,103 4.4 -16.7°
Maximum altitude 00:25:14 69° 122° (ESE) 663 3.7 -16.5°
Drops below altitude 10° 00:29:58 10° 40° (NE) 2,168 7.7 -15.8°
Sets 00:32:34 0° 38° (NE) 3,226 8.9 -15.4°
